This is the latest recevied weather packets stored in our database for station/object EB2EMZ-3. If no packets are shown the sender has not sent any weather packets the latest 1 day(s).
| Time | Temp. | Humidity | Pressure | Rain* | Wind** | Luminosity | Snow |
|---|---|---|---|---|---|---|---|
| 1777966776 | 17.78° C | 73% | 1011.1 hPa | 0.51 mm | 0 m/s | - | - |
| 1777966476 | 17.78° C | 73% | 1010.9 hPa | 0.51 mm | 0 m/s | - | - |
| 1777966176 | 17.78° C | 73% | 1010.8 hPa | 0.51 mm | 0 m/s | - | - |
| 1777965876 | 17.78° C | 74% | 1010.8 hPa | 0.51 mm | 0 m/s | - | - |
| 1777965576 | 17.78° C | 76% | 1011 hPa | 0.51 mm | 0 m/s | - | - |
| 1777965276 | 17.22° C | 77% | 1010.9 hPa | 0.51 mm | 0 m/s | - | - |
| 1777964976 | 16.67° C | 80% | 1011 hPa | 0.51 mm | 0 m/s | - | - |
| 1777964676 | 16.67° C | 80% | 1011 hPa | 0.51 mm | 0 m/s | - | - |
| 1777964376 | 16.11° C | 81% | 1011 hPa | 0.51 mm | 0 m/s | - | - |
| 1777964076 | 15.56° C | 81% | 1011.1 hPa | 0 mm | 0 m/s | - | - |
| 1777963776 | 15.56° C | 83% | 1011.2 hPa | 0 mm | 0 m/s | - | - |
| 1777963476 | 15° C | 83% | 1011.1 hPa | 0 mm | 0 m/s | - | - |
| 1777963176 | 15° C | 85% | 1011.1 hPa | 0 mm | 0 m/s | - | - |
| 1777962876 | 15° C | 85% | 1011.2 hPa | 0 mm | 0 m/s | - | - |
| 1777962576 | 14.44° C | 85% | 1011.3 hPa | 0 mm | 0 m/s | - | - |
| 1777962276 | 13.89° C | 86% | 1011.2 hPa | 0 mm | 0 m/s | - | - |
| 1777961976 | 13.33° C | 87% | 1011 hPa | 0 mm | 0 m/s | - | - |
| 1777961676 | 13.33° C | 87% | 1011 hPa | 0 mm | 0 m/s | - | - |
| 1777961376 | 12.78° C | 88% | 1010.9 hPa | 0 mm | 0 m/s | - | - |
| 1777961076 | 12.78° C | 88% | 1010.9 hPa | 0 mm | 0.45 m/s, 0° | - | - |
| 1777960776 | 12.78° C | 88% | 1011 hPa | 0 mm | 0 m/s | - | - |
| 1777960476 | 12.78° C | 88% | 1011.2 hPa | 0 mm | 0 m/s | - | - |
| 1777960176 | 12.22° C | 88% | 1011.1 hPa | 0 mm | 0 m/s | - | - |
| 1777959876 | 12.22° C | 89% | 1011.1 hPa | 0 mm | 0 m/s | - | - |
| 1777959576 | 12.22° C | 89% | 1011.1 hPa | 0 mm | 0 m/s | - | - |
* Rain latest hour (hover to see other rain measurements)
** Current wind speed in m/s (hover to see current wind gust speed)